When you browse on this site, cookies collect data to enhance your experience and personalize the content and advertising you see.
Visit our Privacy Policy to learn more. By continuing to use the site, you agree to this use of cookies and data.
  • In Germany
  • List of Countries
  • For 7 days
  • Water Temperature
  • Satellite Maps
  • Weather Map
  • Weather Widgets
  • user-avatar
    Login

    Hourly Weather Djelfa

    Today, 21 July, Sunday

    Time Temperature Precipitation Wind Pressure Humidity
    00:00 +30°C° 0.1 mm 5 mps 669 mmHg 27%
    01:00 +30°C° 0 mm 4 mps 669 mmHg 25%
    02:00 +30°C° 0 mm 4 mps 668 mmHg 23%
    03:00 +30°C° 0 mm 3 mps 668 mmHg 22%
    04:00 +30°C° 0 mm 3 mps 668 mmHg 24%
    05:00 +29°C° 0 mm 2 mps 668 mmHg 25%
    06:00 +29°C° 0 mm 1 mps 668 mmHg 27%
    07:00 +30°C° 0 mm 2 mps 669 mmHg 25%
    08:00 +32°C° 0 mm 2 mps 670 mmHg 23%
    09:00 +34°C° 0 mm 3 mps 670 mmHg 21%
    10:00 +35°C° 0 mm 2 mps 670 mmHg 20%
    11:00 +36°C° 0 mm 2 mps 670 mmHg 18%
    12:00 +36°C° 0 mm 2 mps 670 mmHg 17%
    13:00 +37°C° 0 mm 2 mps 670 mmHg 16%
    14:00 +38°C° 0 mm 3 mps 670 mmHg 15%
    15:00 +38°C° 0 mm 4 mps 670 mmHg 14%
    16:00 +36°C° 0.1 mm 4 mps 670 mmHg 18%
    17:00 +34°C° 0.1 mm 4 mps 670 mmHg 22%
    18:00 +33°C° 0.1 mm 5 mps 669 mmHg 25%
    19:00 +32°C° 0.2 mm 4 mps 670 mmHg 27%
    20:00 +30°C° 0.2 mm 3 mps 670 mmHg 29%
    21:00 +30°C° 0.2 mm 2 mps 671 mmHg 30%
    22:00 +29°C° 0 mm 2 mps 670 mmHg 32%
    23:00 +29°C° 0 mm 2 mps 670 mmHg 33%

    Tomorrow, 22 July, Monday

    Time Temperature Precipitation Wind Pressure Humidity
    00:00 +28°C° 0 mm 2 mps 669 mmHg 34%
    01:00 +28°C° 0 mm 2 mps 669 mmHg 35%
    02:00 +27°C° 0 mm 2 mps 669 mmHg 37%
    03:00 +26°C° 0 mm 2 mps 668 mmHg 38%
    04:00 +27°C° 0 mm 2 mps 668 mmHg 38%
    05:00 +27°C° 0 mm 1 mps 669 mmHg 38%
    06:00 +27°C° 0 mm 1 mps 669 mmHg 38%
    07:00 +28°C° 0 mm 1 mps 670 mmHg 35%
    08:00 +29°C° 0 mm 1 mps 670 mmHg 32%
    09:00 +30°C° 0 mm 1 mps 670 mmHg 29%
    10:00 +31°C° 0 mm 1 mps 671 mmHg 27%
    11:00 +34°C° 0 mm 2 mps 671 mmHg 26%
    12:00 +35°C° 0 mm 2 mps 671 mmHg 24%
    13:00 +35°C° 0 mm 3 mps 670 mmHg 24%
    14:00 +35°C° 0 mm 3 mps 670 mmHg 23%
    15:00 +35°C° 0 mm 4 mps 670 mmHg 23%
    16:00 +35°C° 0.1 mm 4 mps 669 mmHg 25%
    17:00 +34°C° 0.1 mm 5 mps 669 mmHg 27%
    18:00 +33°C° 0.1 mm 5 mps 669 mmHg 29%
    19:00 +32°C° 0.1 mm 5 mps 669 mmHg 31%
    20:00 +30°C° 0.1 mm 5 mps 669 mmHg 32%
    21:00 +29°C° 0.1 mm 5 mps 670 mmHg 34%
    22:00 +29°C° 0 mm 4 mps 669 mmHg 36%
    23:00 +28°C° 0 mm 4 mps 669 mmHg 38%

    Day after tomorrow, 23 July, Tuesday

    Time Temperature Precipitation Wind Pressure Humidity
    00:00 +27°C° 0 mm 4 mps 668 mmHg 40%
    01:00 +27°C° 0 mm 3 mps 668 mmHg 42%
    02:00 +26°C° 0 mm 2 mps 668 mmHg 43%
    03:00 +26°C° 0 mm 1 mps 667 mmHg 44%
    04:00 +26°C° 0 mm 2 mps 668 mmHg 43%
    05:00 +26°C° 0 mm 3 mps 668 mmHg 42%
    06:00 +26°C° 0 mm 3 mps 668 mmHg 40%
    07:00 +27°C° 0 mm 4 mps 668 mmHg 37%
    08:00 +29°C° 0 mm 5 mps 669 mmHg 34%
    09:00 +30°C° 0 mm 6 mps 669 mmHg 31%
    10:00 +30°C° 0 mm 5 mps 669 mmHg 30%
    11:00 +32°C° 0 mm 5 mps 669 mmHg 28%
    12:00 +33°C° 0 mm 4 mps 669 mmHg 27%
    13:00 +34°C° 0 mm 4 mps 668 mmHg 25%
    14:00 +34°C° 0 mm 4 mps 668 mmHg 24%
    15:00 +34°C° 0 mm 4 mps 668 mmHg 23%
    16:00 +34°C° 0 mm 4 mps 668 mmHg 23%
    17:00 +34°C° 0 mm 4 mps 667 mmHg 23%
    18:00 +34°C° 0 mm 4 mps 667 mmHg 23%
    19:00 +33°C° 0 mm 4 mps 667 mmHg 25%
    20:00 +32°C° 0 mm 5 mps 668 mmHg 26%
    21:00 +30°C° 0 mm 5 mps 668 mmHg 28%
    22:00 +29°C° 0 mm 5 mps 667 mmHg 28%
    23:00 +28°C° 0 mm 6 mps 667 mmHg 28%

    24 July, Wednesday

    Time Temperature Precipitation Wind Pressure Humidity
    00:00 +28°C° 0 mm 6 mps 667 mmHg 29%
    01:00 +27°C° 0 mm 6 mps 667 mmHg 30%
    02:00 +27°C° 0 mm 5 mps 666 mmHg 31%
    03:00 +26°C° 0 mm 5 mps 666 mmHg 33%
    04:00 +26°C° 0 mm 4 mps 666 mmHg 33%
    05:00 +26°C° 0 mm 4 mps 667 mmHg 34%
    06:00 +26°C° 0 mm 4 mps 667 mmHg 34%
    07:00 +28°C° 0 mm 4 mps 667 mmHg 31%
    08:00 +29°C° 0 mm 5 mps 668 mmHg 28%
    09:00 +32°C° 0 mm 5 mps 669 mmHg 25%
    10:00 +33°C° 0 mm 5 mps 668 mmHg 23%
    11:00 +34°C° 0 mm 4 mps 668 mmHg 22%
    12:00 +35°C° 0 mm 4 mps 668 mmHg 21%
    13:00 +35°C° 0 mm 3 mps 668 mmHg 19%
    14:00 +36°C° 0 mm 3 mps 668 mmHg 18%
    15:00 +36°C° 0 mm 2 mps 667 mmHg 17%
    16:00 +36°C° 0 mm 3 mps 667 mmHg 17%
    17:00 +35°C° 0 mm 3 mps 667 mmHg 18%
    18:00 +35°C° 0 mm 4 mps 667 mmHg 18%
    19:00 +34°C° 0 mm 3 mps 668 mmHg 21%
    20:00 +32°C° 0 mm 2 mps 668 mmHg 23%
    21:00 +30°C° 0 mm 1 mps 668 mmHg 26%
    22:00 +30°C° 0 mm 1 mps 667 mmHg 28%
    23:00 +29°C° 0 mm 1 mps 667 mmHg 29%

    25 July, Thursday

    Time Temperature Precipitation Wind Pressure Humidity
    00:00 +26°C° 0 mm 0 mps 667 mmHg 31%
    01:00 +28°C° 0 mm 1 mps 666 mmHg 31%
    02:00 +27°C° 0 mm 1 mps 666 mmHg 32%
    03:00 +27°C° 0 mm 1 mps 666 mmHg 32%
    04:00 +27°C° 0 mm 1 mps 666 mmHg 31%
    05:00 +27°C° 0 mm 1 mps 666 mmHg 31%
    06:00 +28°C° 0 mm 1 mps 667 mmHg 30%
    07:00 +30°C° 0 mm 2 mps 667 mmHg 26%
    08:00 +31°C° 0 mm 3 mps 668 mmHg 22%
    09:00 +34°C° 0 mm 4 mps 669 mmHg 18%
    10:00 +35°C° 0 mm 4 mps 668 mmHg 16%
    11:00 +36°C° 0 mm 4 mps 668 mmHg 14%
    12:00 +37°C° 0 mm 4 mps 668 mmHg 13%
    13:00 +37°C° 0 mm 4 mps 668 mmHg 12%
    14:00 +39°C° 0 mm 5 mps 667 mmHg 12%
    15:00 +39°C° 0 mm 5 mps 667 mmHg 11%
    16:00 +39°C° 0 mm 5 mps 667 mmHg 12%
    17:00 +37°C° 0 mm 5 mps 667 mmHg 12%
    18:00 +37°C° 0 mm 5 mps 667 mmHg 13%
    19:00 +35°C° 0 mm 4 mps 667 mmHg 15%
    20:00 +34°C° 0 mm 4 mps 667 mmHg 18%
    21:00 +33°C° 0 mm 3 mps 667 mmHg 20%
    22:00 +31°C° 0 mm 3 mps 667 mmHg 23%
    23:00 +30°C° 0 mm 2 mps 667 mmHg 25%

    26 July, Friday

    Time Temperature Precipitation Wind Pressure Humidity
    00:00 +29°C° 0 mm 2 mps 666 mmHg 28%
    01:00 +29°C° 0 mm 2 mps 666 mmHg 29%
    02:00 +28°C° 0 mm 2 mps 666 mmHg 30%
    03:00 +28°C° 0 mm 3 mps 665 mmHg 31%
    04:00 +28°C° 0 mm 3 mps 666 mmHg 32%
    05:00 +27°C° 0 mm 4 mps 666 mmHg 33%
    06:00 +27°C° 0 mm 4 mps 666 mmHg 35%
    07:00 +29°C° 0 mm 4 mps 666 mmHg 31%
    08:00 +30°C° 0 mm 4 mps 667 mmHg 27%
    09:00 +33°C° 0 mm 5 mps 667 mmHg 23%
    10:00 +34°C° 0 mm 5 mps 667 mmHg 21%
    11:00 +35°C° 0 mm 5 mps 667 mmHg 18%
    12:00 +38°C° 0 mm 6 mps 667 mmHg 16%
    13:00 +38°C° 0 mm 6 mps 667 mmHg 15%
    14:00 +38°C° 0 mm 7 mps 667 mmHg 14%
    15:00 +39°C° 0 mm 7 mps 667 mmHg 14%
    16:00 +38°C° 0 mm 7 mps 667 mmHg 14%
    17:00 +36°C° 0 mm 7 mps 667 mmHg 15%
    18:00 +36°C° 0 mm 6 mps 667 mmHg 15%
    19:00 +34°C° 0 mm 6 mps 667 mmHg 19%
    20:00 +33°C° 0 mm 5 mps 667 mmHg 23%
    21:00 +30°C° 0 mm 5 mps 667 mmHg 26%
    22:00 +30°C° 0 mm 4 mps 667 mmHg 28%
    23:00 +29°C° 0 mm 3 mps 667 mmHg 30%
    Show more